GW4793 Weather Reports


time (UTC)temp
C
wind
direction
speed
KPH
gust
KPH
rain 1hr
cm
rain 24hr
cm
rain mn
cm
humidity
%
barometer
mb
20260504081506 12 103 4.8 6.4 0.00 0.00 0.00 64 1014.2
20260504081001 12 110 1.6 4.8 0.00 0.00 0.00 64 1014.0
20260504080458 12 140 3.2 4.8 0.00 0.00 0.00 66 1014.4
20260504050311 13 144 1.6 3.2 0.00 0.00 0.00 66 1015.9
20260504045808 13 156 1.6 3.2 0.00 0.00 0.00 66 1015.9
20260504045308 13 132 1.6 1.6 0.00 0.00 0.00 64 1016.1
20260504044806 13 119 1.6 3.2 0.00 0.00 0.00 64 1016.0
20260504044303 13 132 1.6 3.2 0.00 0.00 0.00 65 1016.3
20260504043800 12 142 1.6 3.2 0.00 0.00 0.00 66 1016.0
20260504043257 12 120 1.6 3.2 0.00 0.00 0.00 67 1016.1
20260504042755 12 133 3.2 3.2 0.00 0.00 0.00 69 1016.2
20260504042251 12 135 0.0 0.0 0.00 0.00 0.00 72 1016.2
20260504041747 12 132 0.0 0.0 0.00 0.00 0.00 72 1016.3
20260504041243 11 127 0.0 0.0 0.00 0.00 0.00 73 1016.3
20260504040739 11 115 0.0 0.0 0.00 0.00 0.00 73 1016.3
20260504040237 11 130 0.0 0.0 0.00 0.00 0.00 74 1016.1
20260504035733 10 120 0.0 0.0 0.00 0.00 0.00 78 1016.4
20260504035231 10 119 0.0 0.0 0.00 0.00 0.00 82 1016.5
20260504034728 10 119 0.0 0.0 0.00 0.00 0.00 84 1016.6
20260504034225 10 119 0.0 0.0 0.00 0.00 0.00 84 1016.6
20260504033723 10 119 0.0 0.0 0.00 0.00 0.00 85 1016.8
20260504033220 9 120 0.0 0.0 0.00 0.00 0.00 86 1016.8
20260504032717 10 120 0.0 0.0 0.00 0.00 0.00 84 1016.8
20260504032214 10 120 0.0 0.0 0.00 0.00 0.00 84 1016.9
20260504031710 10 120 0.0 0.0 0.00 0.00 0.00 84 1016.8
20260504031208 10 120 0.0 0.0 0.00 0.00 0.00 83 1017.1
20260504030703 10 120 0.0 0.0 0.00 0.00 0.00 84 1017.0
20260504030201 9 120 0.0 0.0 0.00 0.00 0.00 82 1017.0
20260504025657 10 119 0.0 0.0 0.00 0.00 0.00 83 1017.3
20260504025154 10 119 0.0 0.0 0.00 0.00 0.00 81 1017.3
20260504024651 9 120 0.0 0.0 0.00 0.00 0.00 82 1017.3
20260504024148 9 119 0.0 0.0 0.00 0.00 0.00 84 1016.9
20260504023645 9 119 0.0 0.0 0.00 0.00 0.00 82 1017.2
20260504023141 9 119 0.0 0.0 0.00 0.00 0.00 80 1017.3
20260504022637 10 119 0.0 0.0 0.00 0.00 0.00 79 1017.2
20260504022133 10 119 0.0 0.0 0.00 0.00 0.00 79 1017.2
20260504021631 10 120 0.0 0.0 0.00 0.00 0.00 78 1017.1
20260504021127 10 120 0.0 0.0 0.00 0.00 0.00 79 1017.2
20260504020625 10 119 0.0 0.0 0.00 0.00 0.00 78 1017.2
20260504020120 10 117 0.0 0.0 0.00 0.00 0.00 77 1017.3
20260504015617 10 117 0.0 0.0 0.00 0.00 0.00 77 1017.2
20260504015114 10 116 0.0 0.0 0.00 0.00 0.00 75 1017.0
20260504014609 11 117 0.0 0.0 0.00 0.00 0.00 75 1017.2
20260504014107 11 87 0.0 0.0 0.00 0.00 0.00 72 1017.0
20260504013604 11 84 0.0 0.0 0.00 0.00 0.00 71 1017.0
20260504013101 11 104 0.0 0.0 0.00 0.00 0.00 68 1016.8
20260504012558 12 105 0.0 0.0 0.00 0.00 0.00 66 1016.7
20260504012056 12 105 0.0 0.0 0.00 0.00 0.00 63 1016.6
20260504011553 13 104 0.0 0.0 0.00 0.00 0.00 61 1016.5
20260504011049 13 104 0.0 0.0 0.00 0.00 0.00 59 1016.2
20260504010544 14 104 0.0 0.0 0.00 0.00 0.00 58 1016.2
20260504010041 14 106 0.0 0.0 0.00 0.00 0.00 56 1016.3
20260504005538 14 109 0.0 0.0 0.00 0.00 0.00 55 1016.5
20260504005035 14 114 0.0 0.0 0.00 0.00 0.00 55 1016.4
20260504004533 14 119 0.0 0.0 0.00 0.00 0.00 54 1016.4
20260504004030 15 120 0.0 0.0 0.00 0.00 0.00 55 1016.2
20260504003526 15 118 0.0 0.0 0.00 0.00 0.00 54 1016.2
20260504003023 15 119 0.0 0.0 0.00 0.00 0.00 53 1016.2
20260504002520 15 121 0.0 0.0 0.00 0.00 0.00 53 1016.1
20260504002017 16 126 0.0 0.0 0.00 0.00 0.00 53 1016.2
20260504001515 16 117 0.0 1.6 0.00 0.00 0.00 51 1016.4
20260504001011 16 112 0.0 1.6 0.00 0.00 0.00 49 1016.4
20260504000508 16 252 3.2 4.8 0.00 0.00 0.00 46 1016.4
20260504000005 17 136 3.2 3.2 0.00 0.00 0.00 48 1016.5
20260503235503 17 117 0.0 4.8 0.00 0.00 0.00 46 1016.4
20260503235000 17 110 4.8 9.7 0.00 0.00 0.00 45 1016.5
20260503234458 17 140 0.0 3.2 0.00 0.00 0.00 49 1016.5
20260503233956 17 159 1.6 4.8 0.00 0.00 0.00 43 1016.6
20260503233452 18 225 3.2 14.5 0.00 0.00 0.00 43 1016.5
20260503232948 18 115 1.6 12.9 0.00 0.00 0.00 44 1016.6
20260503232445 18 113 1.6 4.8 0.00 0.00 0.00 44 1016.6
20260503231943 18 150 3.2 4.8 0.00 0.00 0.00 44 1016.6
20260503231440 18 115 3.2 4.8 0.00 0.00 0.00 42 1016.6
20260503230937 18 164 6.4 12.9 0.00 0.00 0.00 41 1016.7
20260503230433 18 243 3.2 6.4 0.00 0.00 0.00 42 1016.9
20260503225931 19 186 3.2 4.8 0.00 0.00 0.00 44 1016.9
20260503225427 19 250 3.2 6.4 0.00 0.00 0.00 42 1017.0
20260503224923 18 210 6.4 9.7 0.00 0.00 0.00 40 1017.1
20260503224420 18 254 6.4 17.7 0.00 0.00 0.00 39 1017.3
20260503223918 18 119 4.8 9.7 0.00 0.00 0.00 40 1017.1
20260503223416 18 247 0.0 11.3 0.00 0.00 0.00 44 1017.3
20260503222916 19 157 8.0 12.9 0.00 0.00 0.00 39 1017.4
20260503222415 18 261 6.4 9.7 0.00 0.00 0.00 41 1017.4
20260503221913 18 255 4.8 9.7 0.00 0.00 0.00 39 1017.8
20260503221411 18 211 4.8 20.9 0.00 0.00 0.00 40 1017.7
20260503220907 18 265 12.9 16.1 0.00 0.00 0.00 38 1017.7
20260503220404 18 209 8.0 11.3 0.00 0.00 0.00 42 1017.8
20260503215901 18 213 8.0 14.5 0.00 0.00 0.00 40 1017.9
20260503215358 18 109 4.8 11.3 0.00 0.00 0.00 44 1018.2
20260503214855 18 213 6.4 20.9 0.00 0.00 0.00 41 1018.3
20260503214352 18 168 8.0 12.9 0.00 0.00 0.00 40 1018.3
20260503213850 19 271 9.7 16.1 0.00 0.00 0.00 41 1018.4
20260503213348 19 222 6.4 11.3 0.00 0.00 0.00 44 1018.4
20260503212844 19 202 3.2 11.3 0.00 0.00 0.00 46 1018.3
20260503212342 19 217 6.4 6.4 0.00 0.00 0.00 39 1018.5
20260503211839 19 172 6.4 12.9 0.00 0.00 0.00 42 1018.6
20260503211336 18 214 3.2 12.9 0.00 0.00 0.00 39 1018.6
20260503210831 18 213 1.6 6.4 0.00 0.00 0.00 42 1018.7
20260503210328 18 165 4.8 14.5 0.00 0.00 0.00 40 1018.8
20260503205823 18 279 6.4 12.9 0.00 0.00 0.00 40 1019.2
20260503205320 18 325 11.3 16.1 0.00 0.00 0.00 39 1019.3
20260503204817 18 262 9.7 11.3 0.00 0.00 0.00 38 1019.3
20260503204314 19 173 6.4 11.3 0.00 0.00 0.00 40 1019.5
20260503203811 18 133 3.2 11.3 0.00 0.00 0.00 40 1019.3
20260503203309 18 242 4.8 14.5 0.00 0.00 0.00 42 1019.5
20260503202806 18 133 6.4 12.9 0.00 0.00 0.00 43 1019.5
20260503202304 18 300 8.0 14.5 0.00 0.00 0.00 39 1019.4
20260503201801 18 277 12.9 20.9 0.00 0.00 0.00 39 1019.6
20260503201258 18 152 8.0 16.1 0.00 0.00 0.00 39 1019.9
20260503200755 18 146 4.8 6.4 0.00 0.00 0.00 42 1020.3
20260503200251 18 208 6.4 11.3 0.00 0.00 0.00 40 1020.2
20260503195749 18 171 1.6 11.3 0.00 0.00 0.00 40 1020.0
20260503195245 18 137 4.8 12.9 0.00 0.00 0.00 49 1020.2
20260503194743 18 153 6.4 9.7 0.00 0.00 0.00 44 1020.5
20260503194238 17 278 3.2 6.4 0.00 0.00 0.00 43 1020.5
20260503193735 18 189 4.8 12.9 0.00 0.00 0.00 42 1020.7
20260503193231 18 157 4.8 9.7 0.00 0.00 0.00 46 1020.8
20260503192727 18 214 9.7 12.9 0.00 0.00 0.00 42 1021.1
20260503192222 17 214 9.7 14.5 0.00 0.00 0.00 40 1021.1
20260503191719 18 213 4.8 16.1 0.00 0.00 0.00 44 1021.2
20260503191216 18 330 3.2 9.7 0.00 0.00 0.00 42 1021.2
20260503190713 18 134 9.7 11.3 0.00 0.00 0.00 43 1021.2
20260503190209 18 217 3.2 4.8 0.00 0.00 0.00 44 1021.1
20260503185707 17 262 8.0 14.5 0.00 0.00 0.00 43 1021.3
20260503185202 17 247 9.7 16.1 0.00 0.00 0.00 40 1021.6
20260503184657 17 274 3.2 11.3 0.00 0.00 0.00 42 1021.7
20260503184154 17 289 9.7 14.5 0.00 0.00 0.00 42 1021.8
20260503183650 17 256 8.0 9.7 0.00 0.00 0.00 45 1021.9
20260503183147 17 285 3.2 6.4 0.00 0.00 0.00 40 1022.1
20260503182645 17 209 3.2 6.4 0.00 0.00 0.00 44 1022.0
20260503182144 17 213 4.8 12.9 0.00 0.00 0.00 41 1022.3
20260503181640 16 206 3.2 9.7 0.00 0.00 0.00 43 1022.0
20260503181137 16 266 8.0 14.5 0.00 0.00 0.00 41 1022.1
20260503180634 17 269 6.4 6.4 0.00 0.00 0.00 41 1022.1
20260503180132 16 188 4.8 9.7 0.00 0.00 0.00 38 1022.3
20260503175629 16 98 6.4 9.7 0.00 0.00 0.00 36 1022.4
20260503175126 16 291 8.0 14.5 0.00 0.00 0.00 40 1022.5
20260503174622 16 242 3.2 6.4 0.00 0.00 0.00 40 1022.6
20260503174120 16 296 3.2 4.8 0.00 0.00 0.00 39 1022.6
20260503173614 16 242 6.4 12.9 0.00 0.00 0.00 38 1022.7
20260503173111 16 254 11.3 14.5 0.00 0.00 0.00 43 1022.7
20260503172608 16 191 1.6 3.2 0.00 0.00 0.00 46 1022.6
20260503172105 15 285 9.7 14.5 0.00 0.00 0.00 42 1022.8
20260503171601 16 349 4.8 12.9 0.00 0.00 0.00 39 1023.0
20260503171059 16 242 12.9 14.5 0.00 0.00 0.00 42 1023.2
20260503170555 16 263 9.7 16.1 0.00 0.00 0.00 38 1023.1
20260503150948 15 199 1.6 1.6 0.00 0.00 0.00 46 1023.9
20260503150444 14 111 1.6 4.8 0.00 0.00 0.00 45 1024.1
20260503131337 6 101 0.0 0.0 0.00 0.00 0.00 99 1024.1
20260503130835 6 104 0.0 0.0 0.00 0.00 0.00 99 1024.1
20260503130332 5 102 0.0 1.6 0.00 0.00 0.00 99 1023.8
20260503110726 0 86 0.0 0.0 0.00 0.00 0.00 99 1023.6
20260503110223 0 86 0.0 0.0 0.00 0.00 0.00 99 1023.4
20260503100149 0 86 0.0 0.0 0.00 0.00 0.00 99 1023.1
20260503090109 0 86 0.0 0.0 0.00 0.00 0.00 99 1023.0